Location: Eschertshofen
(49.3064°N, 11.5756°E)
Time: 16:34:27
(UTC+00:00)

Okean 1 Rocket - Pass Details

Date: 18 September 2020
Orbit: 605 x 636 km, 82.5° (Epoch: 30 October)

Event Time Altitude Azimuth Distance (km) Brightness Sun altitude
Exits shadow 19:51:21 59° 208° (SSW) 737 3.3 -24.1°
Maximum altitude 19:52:09 80° 279° (W) 652 3.1 -24.2°
Drops below altitude 10° 19:56:41 10° 8° (N) 2,035 6.0 -24.8°
Sets 19:58:56 0° 10° (N) 2,948 6.9 -25.1°
